Theta_e
333 332 332 332 331 330 330 330 330 330 331 332 332 332 332 331 331 332 332 332 332 332 332 331 331 331 330 330 330 330 330 330 330 331 331 331 331 330 329 328 327 327 328 329 329 330 331 331 331 332 332 332 331 330 331 330 329 330 330 330 330 329 329 329 329 329 329 329 330 331 331 330 329 328 328 326 318 314 315 316 319 322 324 326 327
333 331 331 333 332 332 331 330 330 330 330 330 331 331 331 331 331 331 331 331 331 331 331 331 331 330 329 328 328 328 328 329 329 329 329 329 329 328 327 327 327 328 329 330 330 330 330 330 330 330 331 332 331 330 331 330 330 329 328 328 329 330 329 330 329 329 329 328 329 330 330 330 329 329 328 328 324 316 314 316 318 321 323 325 326
332 332 332 332 332 332 331 331 331 330 330 329 330 330 330 330 329 330 330 331 331 330 330 330 329 328 327 327 327 327 328 328 328 328 327 327 327 327 327 328 328 329 330 330 330 330 330 329 329 330 330 331 330 330 330 330 330 329 328 328 328 328 328 328 329 330 330 328 328 329 330 330 329 330 329 329 328 322 315 314 317 320 322 325 326
332 332 332 332 331 331 331 330 331 331 330 330 330 330 330 330 330 330 330 329 329 329 328 328 328 327 327 327 326 326 327 326 326 326 326 326 327 328 328 329 330 330 330 330 330 330 329 329 329 329 329 330 330 329 329 329 329 329 329 328 328 327 327 327 328 329 329 329 328 328 329 330 330 330 329 329 329 327 321 314 315 318 320 324 326
332 332 332 332 331 331 331 330 330 330 330 330 330 330 330 329 329 329 329 329 329 328 328 327 327 327 327 327 326 326 326 325 325 325 326 327 327 328 329 330 330 330 330 330 329 329 329 329 328 328 328 328 329 328 329 329 328 328 328 328 328 328 328 328 328 328 328 329 329 329 329 330 330 329 329 329 329 329 326 319 314 315 317 321 325
331 332 333 332 331 331 331 330 330 330 331 331 330 330 329 329 329 329 329 329 328 327 327 326 326 326 326 326 326 325 325 325 325 325 326 327 327 328 329 329 329 329 329 328 328 328 327 327 327 327 327 327 327 327 327 327 327 327 327 327 327 327 328 328 328 328 328 328 328 328 328 329 330 329 329 329 330 329 329 325 318 314 315 318 322
331 331 332 332 332 331 330 331 331 330 330 330 329 329 329 329 329 328 328 327 327 326 326 325 325 325 325 325 324 324 324 324 325 325 326 326 327 327 327 327 327 327 327 326 326 326 325 325 325 325 325 326 326 326 326 326 326 326 326 325 325 325 326 326 327 327 327 327 328 327 327 328 328 329 329 329 329 329 329 328 324 317 315 316 320
331 331 331 331 332 331 331 331 330 330 329 329 328 328 328 328 328 328 327 326 326 325 325 325 324 324 324 323 322 323 323 324 325 325 325 326 326 325 324 324 323 323 322 322 321 321 320 320 321 321 322 323 323 324 324 325 325 325 324 324 323 323 324 324 325 325 325 325 326 326 326 327 327 328 329 330 329 329 330 329 328 323 317 316 319
332 332 331 331 332 332 331 330 329 329 329 329 329 328 328 327 327 326 325 324 324 324 324 323 323 323 322 320 321 322 323 324 324 324 324 324 323 323 322 320 319 317 316 315 313 312 312 312 312 313 315 316 317 319 320 321 322 322 322 322 322 322 322 322 322 323 323 323 324 324 324 326 328 328 328 330 330 330 330 329 329 327 322 316 317
332 332 333 332 332 332 331 330 330 330 330 329 329 328 326 325 325 324 323 322 321 321 320 319 319 319 318 319 321 322 322 322 322 322 322 321 321 320 317 314 311 309 308 306 305 304 304 304 304 304 305 307 308 309 311 313 315 316 318 319 319 320 320 319 320 320 321 322 322 322 322 323 326 328 328 329 330 329 330 330 329 329 325 320 316
331 332 333 333 332 331 331 331 331 330 330 329 328 327 326 325 323 321 320 318 317 316 314 314 314 315 317 319 320 321 321 320 320 320 319 317 315 311 307 305 303 301 301 300 300 299 299 299 299 300 300 300 300 301 302 304 305 307 308 310 313 314 316 316 316 317 318 320 321 321 321 322 323 325 326 327 329 329 329 330 330 329 328 324 319
331 333 333 332 331 331 331 331 331 331 330 328 327 326 325 323 320 317 316 314 313 312 312 312 312 314 317 318 319 320 319 318 318 317 314 309 305 302 300 299 299 299 299 299 299 299 298 298 298 298 298 298 298 298 298 299 299 300 301 302 304 306 308 309 311 313 314 316 318 319 321 322 322 323 324 326 328 329 329 329 330 330 329 329 324
332 332 332 331 331 331 331 330 330 330 329 327 326 325 322 319 316 314 312 312 311 311 310 310 311 314 316 318 319 319 319 319 316 312 307 303 300 299 299 299 298 299 298 298 298 298 298 298 298 298 298 298 298 298 298 298 298 298 298 298 299 299 300 302 304 306 308 310 313 316 318 320 322 322 323 324 326 327 328 328 328 329 329 330 328
332 332 332 332 332 331 330 328 328 327 326 325 324 320 318 315 313 312 311 310 309 308 308 308 309 311 312 316 319 319 319 316 310 305 302 299 299 299 298 298 298 298 298 298 298 298 298 298 298 298 298 298 298 298 298 298 298 298 298 298 298 298 298 298 299 300 302 304 306 310 314 317 320 321 321 322 324 325 325 326 327 329 329 329 329
332 332 333 332 332 330 329 327 325 325 324 322 319 315 314 312 311 311 309 308 306 305 305 304 306 308 311 316 317 317 315 308 303 303 300 298 299 299 298 298 298 298 298 298 298 298 298 297 297 297 298 297 297 297 297 298 298 298 298 298 298 298 298 298 298 298 298 299 300 302 306 310 315 318 319 320 321 322 323 324 325 327 329 330 330
332 333 332 331 330 328 327 326 324 323 321 317 314 312 311 311 310 308 306 304 304 303 303 302 303 305 308 311 311 311 310 304 302 301 298 299 298 298 298 298 298 298 298 298 297 297 297 297 297 297 297 297 297 297 297 297 297 297 298 298 298 298 298 298 298 298 298 298 298 298 299 301 306 311 315 317 319 320 321 322 324 325 327 329 330
333 332 331 329 327 326 325 324 322 319 316 313 311 311 310 309 307 305 303 303 302 302 302 302 302 303 303 304 305 306 303 302 303 300 297 298 298 297 298 297 297 297 297 297 297 297 297 297 297 297 297 297 297 297 297 297 297 297 298 298 298 298 298 298 298 298 298 298 298 298 298 298 299 302 306 311 314 317 319 320 323 325 326 328 329
332 330 328 326 325 324 323 320 317 315 313 311 310 309 308 306 304 302 302 302 302 302 303 302 302 302 302 302 303 302 300 299 303 302 298 297 297 297 297 297 297 297 297 297 296 296 296 296 296 296 296 296 296 297 297 297 297 297 298 298 298 298 298 298 298 298 298 298 298 298 298 298 298 298 299 302 306 310 314 317 320 323 325 326 328
330 328 327 324 323 321 318 315 313 312 311 310 309 307 305 303 302 302 302 302 301 302 302 302 302 302 301 301 300 300 300 299 300 302 301 299 297 297 297 297 297 296 296 296 296 296 296 296 296 296 296 296 296 296 297 297 297 297 297 298 298 298 298 298 298 299 298 298 299 299 298 298 298 298 298 298 299 301 305 311 316 320 322 324 326
328 327 325 323 320 317 314 312 311 310 310 308 307 304 302 302 301 301 301 301 302 302 302 302 302 301 300 300 300 299 299 299 299 299 300 301 298 296 296 296 296 296 296 296 296 296 296 296 296 296 296 296 296 296 296 297 297 297 297 298 298 298 298 298 299 299 299 299 299 299 299 299 299 298 299 298 298 298 299 302 308 314 319 321 324
327 325 323 320 316 313 311 310 309 309 308 306 303 302 301 301 301 301 301 301 302 301 302 301 301 301 300 299 299 299 299 299 299 298 298 299 298 296 296 296 296 296 295 296 296 296 296 296 296 296 296 296 296 296 296 296 296 297 297 297 298 298 298 298 298 299 299 299 299 299 299 299 299 299 299 299 299 298 298 298 300 305 312 318 321
326 323 320 316 313 311 310 309 308 307 305 303 301 301 301 301 301 301 301 301 301 301 301 301 300 300 300 300 299 299 299 299 298 298 298 298 297 296 297 297 296 296 295 296 295 295 295 295 295 295 295 296 296 296 296 296 296 296 297 297 297 298 298 298 298 298 299 299 299 299 299 299 299 299 299 299 299 299 299 298 298 299 303 310 316
323 320 316 313 311 310 308 307 306 304 302 301 300 300 300 300 300 301 301 301 301 300 301 300 300 300 300 300 299 299 299 298 298 298 297 297 297 297 297 296 296 296 295 295 295 295 295 295 295 295 295 295 295 296 296 295 296 296 296 297 297 297 298 298 298 298 298 299 299 299 299 299 299 299 299 299 299 299 299 299 299 298 298 302 309
321 316 313 311 310 308 307 306 303 301 300 300 300 300 300 300 300 300 301 301 300 300 300 300 300 300 300 299 299 299 298 298 297 297 297 297 297 296 296 296 296 296 296 295 295 296 295 295 295 295 295 295 295 295 295 295 295 296 296 296 296 297 297 297 298 298 298 298 299 299 299 299 299 300 299 299 299 299 299 299 299 299 299 298 301
318 314 311 310 308 306 305 303 301 300 300 299 300 300 300 300 300 300 300 300 300 300 300 300 300 299 299 299 298 298 298 297 297 297 297 296 296 296 296 296 296 296 296 296 295 295 295 295 295 295 295 295 295 295 295 295 295 295 296 296 296 296 296 297 297 297 298 298 298 299 299 299 299 300 300 300 299 299 299 300 300 299 299 299 298
315 312 310 308 306 305 303 301 300 299 299 299 299 300 299 300 300 300 300 300 300 300 300 299 299 299 299 298 298 298 297 297 297 296 296 296 296 296 296 296 296 296 296 295 295 295 295 295 295 295 295 295 295 295 295 295 295 295 295 295 296 296 296 297 297 297 297 298 298 298 299 299 299 300 300 300 300 299 299 299 300 300 299 300 299
313 310 308 307 305 303 301 299 299 299 299 299 299 299 299 299 300 300 300 300 299 299 299 299 299 299 298 298 297 297 297 296 296 296 295 295 295 295 296 296 296 296 296 295 295 295 294 295 295 295 295 295 295 295 295 295 295 295 295 295 296 296 297 297 297 297 297 298 298 298 298 299 299 300 300 300 300 299 299 299 299 300 300 300 300
311 308 307 305 303 301 300 299 298 298 298 299 299 299 299 299 299 299 299 299 299 299 299 298 299 298 298 297 297 297 296 296 296 295 295 295 295 295 295 295 295 296 296 295 295 294 294 294 295 294 294 294 295 295 295 295 295 295 296 296 296 297 297 297 298 298 298 298 299 299 299 299 299 300 300 300 300 299 299 298 299 300 300 300 300
309 307 305 304 301 299 299 298 298 298 298 298 299 299 299 299 299 299 299 298 298 298 298 298 298 298 297 297 296 296 296 295 295 295 295 295 295 295 294 294 293 294 295 295 295 294 294 294 294 294 294 294 294 295 295 295 295 296 296 296 297 297 297 298 299 299 299 299 299 299 299 299 299 299 299 299 299 299 298 298 298 299 300 300 299
307 305 304 302 300 299 298 298 298 298 298 298 298 298 299 299 299 299 298 298 298 298 298 298 297 297 296 296 296 296 295 295 295 295 295 295 294 294 294 293 293 292 293 294 294 294 293 294 294 294 294 294 294 294 295 295 295 296 296 296 297 297 298 299 299 299 299 299 299 298 298 298 298 299 299 299 299 298 298 297 297 298 299 300 299
305 304 302 300 299 298 298 298 298 298 298 298 298 298 298 298 298 298 298 297 298 298 297 297 297 296 296 295 295 295 295 294 294 294 294 294 294 293 293 292 292 292 292 292 294 294 293 293 293 294 294 294 294 295 295 295 295 296 296 297 297 298 299 299 299 299 298 297 297 296 297 297 297 298 298 298 298 298 298 297 297 297 298 299 299
304 302 300 299 298 297 297 297 297 297 297 298 298 298 298 298 298 298 298 297 297 297 297 296 296 295 295 295 295 295 295 294 294 294 294 294 293 293 292 292 292 292 292 292 293 293 293 293 293 293 294 294 294 295 295 295 295 296 296 297 298 299 299 299 298 297 296 296 296 296 296 296 296 296 297 297 297 297 297 297 297 296 297 298 298
302 301 299 298 297 297 297 297 297 297 297 297 298 298 298 298 297 297 297 297 296 296 296 295 295 295 295 295 295 294 294 294 294 294 293 293 293 293 292 292 292 292 292 292 292 293 293 293 293 293 294 294 294 295 295 295 296 296 297 298 299 300 299 297 296 296 296 296 296 296 296 295 295 295 296 296 296 297 297 297 297 296 296 297 298
301 300 298 297 297 297 297 297 297 297 297 297 297 297 297 297 297 297 297 296 296 296 295 295 295 295 295 295 294 294 294 294 294 293 293 293 293 292 292 292 292 292 292 292 292 293 293 293 293 293 294 294 294 295 295 295 296 296 297 298 299 299 297 296 296 296 296 296 296 295 295 295 295 295 295 295 296 296 296 297 297 297 296 296 297
301 299 297 297 297 297 297 297 297 297 297 297 297 297 297 297 297 297 296 296 296 296 295 295 295 294 294 294 294 294 294 294 293 293 293 293 293 293 292 292 292 292 292 292 292 292 293 293 293 293 294 294 294 295 295 295 295 296 297 299 299 297 296 296 296 296 296 296 295 295 295 295 295 295 295 295 295 295 296 296 296 297 297 296 297
300 298 297 296 296 296 296 296 297 297 297 297 297 297 297 297 296 296 296 296 296 296 295 295 295 294 294 294 294 294 294 293 293 293 293 293 293 292 292 292 292 292 292 292 292 292 292 293 293 293 294 294 294 294 295 295 295 296 297 298 298 296 296 296 296 296 296 296 295 296 295 295 295 295 295 295 296 296 295 295 296 296 297 296 297
299 297 297 297 296 296 296 296 296 297 296 297 296 297 297 296 296 296 296 296 296 296 295 295 295 294 294 294 294 294 293 293 293 293 292 293 292 292 292 292 292 292 292 292 292 292 292 293 293 293 294 294 294 294 295 295 295 296 297 297 298 297 297 297 296 296 296 296 296 296 296 296 296 296 296 296 297 297 296 296 296 296 297 297 297
298 297 296 296 296 296 296 296 296 296 296 297 296 296 296 296 296 296 296 296 296 296 295 295 294 294 294 294 294 294 294 293 293 293 292 292 292 292 292 292 292 292 292 292 292 292 292 292 293 294 294 294 294 294 294 295 295 296 296 296 297 297 297 297 297 297 296 296 296 296 296 296 297 297 297 297 297 298 298 297 297 297 297 297 297
298 296 296 296 296 296 296 296 296 296 296 296 296 296 296 296 296 296 296 295 295 295 295 294 294 294 294 294 294 294 294 293 293 292 292 292 292 292 292 292 292 292 292 292 292 292 292 292 293 294 294 294 294 294 294 294 295 296 296 295 296 297 296 296 297 297 297 296 296 296 296 296 296 296 297 297 297 298 299 299 298 298 298 298 297
297 297 296 296 296 296 296 296 296 296 296 296 296 296 296 296 296 295 295 295 295 295 295 294 294 294 294 294 294 294 293 293 292 292 292 292 292 292 292 292 292 292 292 292 292 292 292 293 294 294 294 295 295 294 294 294 295 296 296 295 295 296 296 296 297 297 297 296 296 296 296 296 296 296 296 296 297 297 298 299 299 299 298 298 298
297 296 296 296 296 296 296 296 296 296 296 296 296 296 295 295 295 295 295 295 295 295 294 294 294 294 294 294 294 294 293 292 292 292 292 292 292 292 292 292 292 292 292 291 292 292 292 293 294 295 294 295 294 294 294 294 294 295 296 295 295 296 296 297 297 297 297 296 296 295 295 295 295 296 296 296 296 297 297 298 298 298 298 298 298
297 296 295 296 296 296 296 296 295 296 296 296 296 296 295 295 295 295 295 295 294 294 294 294 294 294 294 294 294 294 293 292 292 292 292 292 292 291 291 291 291 291 291 291 291 291 292 293 294 295 295 294 294 294 294 294 294 295 295 295 295 296 296 296 297 298 297 296 295 295 295 295 294 295 295 295 296 296 296 297 297 298 298 298 299
297 296 295 296 296 296 296 295 295 296 296 296 296 295 295 295 295 295 295 295 294 294 294 294 294 294 294 294 294 294 293 293 293 293 292 292 292 292 292 291 291 291 291 291 291 291 291 292 293 294 294 294 294 294 294 294 294 295 295 295 295 296 296 295 296 297 296 295 295 295 295 294 294 294 295 295 295 295 296 296 297 298 298 298 299
297 296 295 296 296 295 295 295 295 296 295 295 295 295 295 295 295 295 295 295 294 294 294 294 294 294 294 294 294 294 293 293 293 293 293 293 293 293 292 292 291 291 291 291 291 291 291 292 293 294 294 294 294 294 294 294 294 294 295 295 295 295 295 295 295 296 296 295 295 295 294 294 294 294 294 294 295 295 296 296 297 297 298 298 298
297 296 295 296 296 295 295 295 295 295 295 295 295 295 295 295 295 295 295 295 294 294 294 294 294 294 294 294 294 294 294 294 294 294 294 294 294 294 293 293 292 292 291 291 291 291 291 292 293 293 294 294 294 293 293 294 294 294 294 295 295 295 295 296 296 296 296 295 295 294 294 294 294 294 294 294 294 295 295 295 296 296 298 298 298
296 295 296 295 295 295 295 295 295 295 295 295 295 295 295 295 295 295 295 295 294 294 294 294 294 294 294 294 294 294 294 294 294 295 295 295 295 294 294 293 293 292 292 292 291 291 291 292 292 293 293 294 294 293 293 293 293 293 294 295 295 295 296 296 296 296 296 295 295 294 294 294 294 293 294 294 294 294 294 295 295 296 297 298 298
296 295 295 295 295 295 295 295 295 295 295 295 295 295 295 295 295 294 295 294 294 294 294 294 294 295 295 295 295 294 294 294 294 295 295 295 295 295 294 294 293 293 292 291 291 291 291 291 292 292 293 293 293 293 293 293 293 293 294 294 295 295 295 296 296 296 295 295 294 294 293 293 293 293 293 293 293 293 294 294 294 295 296 297 297
295 295 295 295 295 295 295 295 295 295 295 295 295 295 295 294 294 294 294 294 294 294 294 294 294 295 295 295 294 294 294 294 294 295 295 295 295 295 295 295 294 294 293 292 291 291 291 291 291 292 292 292 293 293 293 293 293 293 293 294 294 295 295 295 295 295 295 295 294 293 293 293 293 293 293 293 293 293 294 294 294 295 296 297 297
295 295 295 295 295 295 295 295 295 295 295 295 295 295 294 294 294 294 294 294 294 294 294 294 294 295 295 295 294 294 294 294 294 295 295 295 295 295 295 295 294 294 294 294 293 292 292 291 291 291 291 292 292 293 293 293 293 293 293 293 294 295 295 295 295 295 295 295 294 293 293 293 293 293 293 293 293 293 293 294 294 295 295 297 298
296 295 295 295 295 295 295 295 295 295 295 295 294 294 294 294 294 295 295 295 294 295 294 294 295 295 295 294 294 294 294 294 294 295 295 295 295 295 295 295 294 294 294 294 294 294 293 293 292 292 292 292 292 292 292 293 293 293 293 293 293 294 295 295 295 295 295 295 294 293 293 293 293 292 292 292 293 293 293 293 294 295 296 297 297
295 295 295 295 295 295 295 294 294 294 294 294 294 294 294 295 295 295 295 295 295 295 295 294 295 295 294 294 294 294 294 294 294 295 295 295 295 294 294 294 294 294 294 294 294 294 294 293 293 293 292 292 292 292 292 292 293 293 293 293 293 294 294 295 295 295 295 295 294 293 293 293 293 292 292 292 292 293 294 294 295 296 296 297 297
Wind_Speed
4 3 3 3 2 2 2 2 2 1 2 2 2 2 2 2 2 2 2 2 3 5 5 6 7 8 9 10 10 11 11 12 12 12 12 13 14 15 15 15 16 15 14 13 13 12 11 11 11 12 12 12 12 12 11 11 12 12 12 13 13 12 12 13 14 15 17 17 16 16 17 17 15 15 14 13 12 14 16 16 14 13 13 14 14
3 2 2 2 2 3 3 2 2 1 1 1 2 2 2 2 2 2 2 3 4 5 6 7 8 9 9 10 11 11 11 12 12 12 13 12 13 14 14 14 14 14 14 13 12 12 11 11 12 12 11 12 13 13 11 10 11 12 12 14 14 14 13 13 14 15 16 17 15 15 15 16 15 15 15 14 13 13 16 17 16 15 14 14 15
2 2 2 3 3 3 3 2 1 1 1 1 2 2 2 2 2 3 3 3 4 5 6 7 8 9 9 10 10 11 11 11 12 12 12 11 11 11 12 13 13 14 14 14 13 12 12 12 13 13 12 12 13 13 13 13 13 13 13 14 14 14 14 15 15 16 16 16 15 14 14 15 16 16 16 14 14 13 14 17 18 17 16 15 15
3 3 3 2 3 3 3 2 3 2 2 2 3 3 3 3 4 4 5 5 6 6 7 8 9 9 10 10 11 11 11 10 10 10 10 10 9 9 10 11 12 13 13 13 13 12 12 12 13 13 14 14 14 15 16 16 15 14 13 14 14 14 14 14 16 16 16 15 14 14 15 16 17 17 17 15 14 13 14 16 18 19 17 16 16
4 4 3 2 2 3 4 4 4 3 3 4 5 5 5 5 5 6 7 7 7 8 8 9 10 10 10 10 10 10 10 9 9 9 9 9 9 9 10 11 11 12 13 13 13 13 13 13 12 13 14 15 16 17 17 17 18 16 14 15 15 14 13 13 14 16 16 15 14 14 15 17 18 18 18 16 14 13 14 14 17 20 19 18 17
4 3 2 2 2 3 5 5 5 4 5 6 6 7 7 7 7 8 8 8 8 9 9 9 10 10 10 10 10 9 9 9 9 8 8 8 8 9 9 10 10 11 12 13 13 13 13 13 13 13 14 15 16 17 17 18 19 18 17 17 16 15 13 13 14 15 16 16 16 16 15 16 17 18 18 17 16 15 14 14 15 19 21 19 18
3 3 2 1 2 4 5 5 5 5 6 6 7 7 8 8 8 8 8 9 9 10 9 9 9 10 9 9 9 8 8 8 7 7 7 7 8 9 9 9 10 11 12 13 14 14 14 14 14 14 15 15 16 17 17 17 18 18 19 19 18 16 14 15 16 17 18 17 17 18 17 17 18 18 19 19 18 17 15 14 14 17 21 22 20
2 3 3 2 3 5 5 5 5 5 6 7 7 7 8 8 8 8 9 9 10 10 10 9 9 9 8 8 7 7 7 6 6 6 6 7 8 9 10 10 11 12 13 14 14 15 15 14 14 14 14 15 15 15 17 18 18 18 19 20 20 19 16 16 18 19 20 18 18 20 20 19 18 18 19 20 21 19 17 16 15 15 18 22 23
1 2 3 2 3 4 5 5 6 6 6 6 7 8 8 8 8 8 9 9 9 10 9 8 8 7 6 6 5 5 5 4 4 5 6 7 9 10 12 13 13 14 14 15 15 15 15 14 14 14 14 15 15 15 16 17 18 19 20 20 22 22 19 17 19 20 21 19 19 21 21 21 19 17 16 18 22 21 19 18 17 16 17 20 23
1 1 2 2 2 4 5 5 6 6 6 6 7 8 8 9 9 9 9 8 7 7 6 5 5 4 3 3 3 3 2 3 5 6 8 9 11 12 13 14 14 15 15 15 15 15 15 15 14 14 15 15 15 15 16 17 18 19 20 21 22 23 21 20 20 21 21 18 19 21 21 21 21 19 15 14 18 21 21 22 21 19 19 20 23
1 0 1 2 2 3 4 5 6 7 7 7 8 8 9 10 9 8 7 5 5 4 4 3 2 2 2 2 2 1 2 4 6 7 9 11 12 13 13 14 14 14 14 14 15 16 17 17 16 16 16 16 15 15 15 16 17 18 19 20 21 23 23 22 21 22 22 19 19 21 20 20 22 20 17 14 16 19 22 24 24 22 21 21 22
1 1 1 2 3 4 4 6 7 7 8 8 8 8 9 8 7 6 5 5 5 5 4 2 1 2 2 3 2 1 3 5 7 9 10 11 12 13 13 14 14 14 15 16 16 17 18 19 19 19 18 17 17 16 16 15 16 16 17 17 19 21 22 22 22 22 23 21 20 21 19 19 21 20 18 17 18 20 22 24 24 24 24 22 22
0 1 2 4 5 6 7 8 8 8 8 7 7 7 6 5 5 6 6 6 5 4 3 1 1 2 3 4 2 1 3 6 8 9 10 12 13 14 14 14 14 16 17 17 18 18 19 20 21 21 21 20 19 18 17 17 16 16 17 17 17 18 20 21 22 22 24 24 22 22 21 19 20 21 20 20 21 22 23 23 24 25 26 26 23
1 3 5 7 8 9 10 10 8 7 6 6 6 5 4 4 5 6 6 6 5 4 4 2 1 3 3 3 2 1 3 6 8 8 11 13 15 15 15 15 16 17 18 18 19 20 20 21 22 22 22 22 22 21 20 19 18 18 18 18 18 18 19 20 21 21 22 24 23 23 22 21 21 22 23 23 23 25 25 25 25 26 27 28 27
3 5 8 10 11 11 10 9 7 6 6 5 4 4 4 5 6 6 6 6 5 4 4 3 1 2 2 2 3 4 3 5 7 9 12 14 15 16 16 16 17 18 18 19 20 21 21 22 23 23 24 24 23 23 22 21 20 19 19 20 20 20 19 20 20 21 21 22 23 24 23 23 23 23 24 24 25 25 25 26 25 25 26 29 30
6 8 10 12 12 11 9 7 6 5 5 4 5 6 6 6 6 6 7 6 5 5 7 7 6 4 3 3 5 6 5 4 6 10 12 14 15 16 16 16 18 19 19 20 21 22 22 23 24 24 25 25 25 24 23 22 21 20 20 20 21 21 21 21 20 20 21 21 22 23 24 24 25 25 25 26 26 25 24 24 24 23 25 28 30
8 10 11 12 10 7 6 4 4 4 4 5 6 6 7 6 7 7 6 6 7 7 8 10 10 9 7 6 6 6 6 4 5 8 10 13 15 16 16 17 18 19 20 20 21 21 22 23 23 24 24 25 25 25 25 24 23 22 22 22 21 22 22 23 22 22 22 21 21 23 24 24 25 25 26 27 28 27 24 22 21 21 24 26 28
9 11 12 10 6 3 2 3 3 5 5 6 7 7 7 7 7 7 6 8 9 8 9 10 10 11 11 10 9 9 10 8 6 6 6 12 16 16 17 18 18 19 20 19 19 20 21 22 23 25 26 26 27 27 27 26 26 25 23 23 22 22 23 23 24 24 23 23 22 22 23 24 25 24 25 27 29 29 27 23 21 22 24 24 26
10 12 10 7 3 1 2 3 5 5 6 7 7 7 8 7 7 8 8 10 10 9 10 10 10 11 13 13 13 13 13 12 10 7 4 8 16 17 17 19 19 20 20 20 20 21 22 24 25 27 28 29 29 29 29 28 28 27 26 26 25 24 23 23 24 24 24 24 24 23 23 24 25 25 25 26 27 28 29 26 24 23 24 23 24
11 10 7 3 1 3 4 5 6 6 6 7 7 7 8 8 8 9 9 10 10 10 11 11 12 14 15 14 14 14 13 13 13 12 9 7 14 19 18 18 20 20 20 20 20 22 23 24 25 26 28 28 29 29 29 29 29 28 28 27 27 26 24 24 24 24 24 24 25 25 24 24 25 25 26 25 26 27 28 28 27 26 25 24 23
10 7 4 2 3 4 5 6 6 6 7 7 7 8 8 8 8 9 9 9 10 10 11 13 14 15 15 14 14 13 12 14 14 16 16 13 15 20 21 21 21 21 21 20 20 21 23 23 25 26 27 28 29 29 30 29 29 29 28 27 27 27 26 25 24 23 23 23 24 25 25 25 25 26 27 26 25 26 27 27 27 28 28 26 23
8 4 3 2 4 5 5 6 6 6 7 8 8 9 8 8 8 9 9 9 10 11 12 14 14 13 13 12 13 13 13 15 17 18 19 18 18 20 21 21 20 20 21 20 21 23 25 25 26 27 28 29 30 31 31 30 30 30 29 28 27 27 27 27 26 25 24 23 23 23 24 25 25 26 27 27 26 25 26 27 27 28 29 28 25
5 3 3 3 5 5 6 6 6 7 8 9 9 8 8 8 8 9 9 10 11 12 12 13 13 12 12 12 13 15 15 17 19 19 19 20 19 19 20 20 19 19 19 19 20 22 25 26 27 28 28 28 29 30 31 31 31 31 30 29 28 28 28 28 28 27 25 24 23 23 23 23 24 25 26 27 27 26 26 27 28 28 29 30 27
3 3 3 4 5 5 5 6 6 8 8 8 8 8 9 9 9 9 10 11 12 12 12 12 12 11 12 14 14 15 16 18 19 19 19 19 19 20 20 21 21 21 20 19 19 21 23 24 26 28 28 28 29 30 31 31 32 32 31 30 29 29 29 28 28 28 27 25 24 24 23 23 24 24 25 26 26 27 27 27 28 29 28 29 29
3 4 4 4 5 5 5 6 7 8 8 8 8 9 10 9 9 10 10 12 12 11 11 11 12 13 13 15 15 16 17 18 18 18 18 19 20 21 22 22 22 22 21 19 20 22 23 25 26 27 29 30 30 31 32 33 33 33 34 33 32 31 31 30 29 29 28 27 25 25 25 25 25 25 25 25 26 26 27 27 28 29 29 29 29
4 4 4 5 5 5 5 6 7 8 8 8 9 10 10 10 10 10 10 12 11 11 11 12 12 13 14 15 16 17 18 18 18 18 19 20 21 22 23 23 22 23 23 22 22 24 25 25 27 29 31 31 32 32 33 34 35 36 36 37 37 36 34 33 31 30 30 29 28 26 26 26 26 26 26 26 27 27 26 27 27 29 30 29 28
4 5 5 5 5 5 5 6 7 8 8 8 9 10 11 10 10 10 10 11 11 11 12 12 13 14 14 15 16 16 17 18 18 19 20 21 22 23 23 24 24 23 24 24 24 26 28 26 26 28 31 31 31 32 33 34 35 37 38 39 40 39 38 36 35 33 32 31 31 29 28 28 27 27 27 27 28 28 28 27 27 28 29 30 29
5 5 5 5 5 5 5 6 7 7 8 9 9 11 11 10 10 9 10 11 10 11 12 12 13 14 14 15 15 16 17 18 18 19 20 21 22 22 23 24 24 22 23 26 25 26 29 29 28 28 30 31 31 32 33 34 34 36 38 39 40 40 40 39 37 35 34 32 33 32 31 31 30 29 29 29 29 29 29 28 27 27 29 30 30
6 6 5 5 5 5 5 6 7 7 8 9 10 11 10 9 9 9 10 11 10 10 12 12 12 13 13 14 14 16 17 17 18 19 20 21 21 22 22 23 23 20 20 24 25 26 28 30 31 31 31 32 32 32 33 34 35 36 39 40 41 42 42 40 38 37 37 36 35 35 34 33 32 31 30 30 31 31 30 29 27 27 28 30 30
6 6 5 6 6 6 5 5 7 8 8 9 10 10 9 9 9 9 10 11 10 10 11 11 12 12 13 14 14 15 17 17 18 19 20 20 21 22 22 23 23 22 19 21 23 26 29 30 31 32 33 34 33 34 35 36 37 39 41 43 44 45 44 42 41 41 41 40 38 37 35 34 33 33 31 30 30 30 30 29 27 26 27 29 30
6 6 6 6 6 6 6 6 7 8 8 9 9 9 9 8 8 9 11 11 10 10 10 10 11 12 13 13 14 15 16 17 18 19 19 20 21 22 22 23 23 23 23 21 22 26 30 32 32 32 33 34 34 36 38 39 41 42 44 45 46 46 46 46 46 43 41 38 36 36 34 33 32 31 30 28 27 28 28 27 26 26 26 28 30
7 7 6 7 6 6 6 6 7 8 8 9 9 9 8 7 8 9 10 10 9 9 9 10 11 12 13 13 14 15 16 17 17 18 19 19 20 21 22 24 24 24 25 23 24 28 31 32 33 33 33 35 35 37 40 42 44 45 46 47 47 48 49 48 44 39 36 35 34 34 32 30 28 27 25 25 24 25 26 25 24 24 24 26 29
8 7 7 7 7 7 7 7 8 8 8 8 9 9 8 7 8 9 9 8 7 8 9 10 11 12 12 13 14 15 16 17 17 18 18 19 20 22 23 23 24 25 26 25 26 30 32 32 33 34 34 36 37 38 41 44 47 48 49 48 48 49 48 42 35 31 31 33 33 32 30 29 28 28 25 23 22 22 23 24 24 24 24 25 27
9 8 8 8 8 8 8 8 8 8 8 8 8 8 8 7 7 7 7 6 6 8 9 9 11 11 12 12 14 15 16 16 17 17 18 20 20 22 23 23 24 24 25 27 28 30 33 33 33 35 35 36 38 40 43 47 49 50 50 49 49 49 42 33 30 31 31 31 32 31 30 31 32 31 28 25 23 22 22 23 25 25 25 25 26
9 9 9 9 9 9 9 9 9 8 8 7 8 8 7 6 6 6 6 5 6 7 8 9 10 11 11 13 14 15 16 16 17 18 19 20 20 21 23 24 25 25 26 27 28 30 32 34 34 35 36 38 39 42 45 48 51 51 51 52 49 40 33 30 31 31 30 32 32 31 31 32 33 31 29 29 26 24 23 23 24 26 26 26 26
10 10 10 10 10 10 10 9 8 8 8 7 7 7 7 6 5 5 5 5 6 6 7 8 9 11 12 13 14 15 16 16 17 18 19 19 20 22 24 25 25 26 26 27 28 30 31 33 34 35 37 40 41 44 47 49 51 51 49 51 44 32 29 31 30 29 30 32 31 29 31 32 31 30 30 29 27 25 24 24 23 24 26 26 26
11 11 11 11 11 11 10 9 8 8 8 7 7 7 6 6 5 4 4 4 5 5 6 8 9 11 13 14 15 15 16 17 18 19 19 20 21 23 24 25 26 26 27 28 29 29 31 32 34 36 38 41 43 45 48 50 52 51 47 46 43 36 35 34 31 31 31 28 26 27 29 30 29 29 29 28 26 24 23 23 23 22 24 24 24
11 11 11 12 12 12 11 10 9 8 8 7 7 6 6 5 5 4 4 4 4 5 6 8 10 12 13 14 15 15 16 17 18 19 19 20 22 23 25 25 26 27 27 28 29 30 30 32 35 37 39 41 43 45 47 49 51 51 45 40 38 37 38 37 35 35 31 25 24 26 27 29 29 28 28 27 24 21 20 21 22 22 23 23 22
12 11 12 13 13 13 12 11 10 9 8 7 7 7 6 5 5 4 4 4 4 5 7 9 10 11 13 14 14 15 17 18 18 19 19 20 22 23 25 25 26 27 28 29 30 30 32 33 34 36 38 40 41 43 47 48 47 48 44 36 34 36 36 34 33 34 31 27 26 26 26 28 29 28 27 26 23 21 20 19 20 22 23 23 22
12 12 12 13 13 13 13 12 11 9 8 7 7 7 7 6 6 5 4 4 5 6 7 9 10 11 12 13 14 15 17 18 18 18 19 21 21 23 24 25 26 28 28 29 30 31 32 32 32 34 36 37 38 42 47 48 47 49 45 34 32 35 34 33 33 32 31 30 29 27 27 29 29 27 25 23 21 21 22 20 19 20 21 22 22
14 14 14 14 13 14 13 12 11 10 9 8 7 7 7 7 6 6 5 5 5 6 7 8 9 10 11 12 13 14 16 17 17 18 19 20 21 23 24 25 26 27 28 29 30 30 31 31 30 32 35 36 39 42 45 45 46 47 42 32 30 31 30 33 38 34 30 31 31 30 27 27 29 28 24 22 21 21 21 20 18 19 21 22 22
15 16 16 14 14 14 13 13 12 10 9 9 8 8 7 7 7 6 6 6 6 6 7 7 8 9 10 11 12 14 15 16 16 17 17 18 20 22 23 25 26 27 28 28 29 30 30 30 30 31 33 35 39 41 41 43 45 45 39 33 31 30 28 32 41 41 35 30 32 33 30 27 28 29 26 23 23 22 20 19 20 22 24 23 23
16 17 16 15 15 15 14 13 12 11 10 9 9 8 8 8 7 7 6 6 6 6 7 7 7 8 9 10 11 12 13 14 15 16 17 18 19 20 21 23 24 26 27 28 28 29 29 30 30 30 31 34 38 39 39 42 45 45 42 35 30 29 29 30 36 40 37 30 29 32 31 26 23 26 28 26 25 23 21 21 24 26 26 24 23
17 17 17 16 16 16 15 14 13 12 11 10 10 9 8 8 8 7 7 6 6 6 6 6 6 7 8 8 10 11 12 13 14 15 16 17 19 20 21 22 23 24 25 26 27 28 28 28 29 29 30 33 37 38 39 42 44 45 44 37 28 27 29 28 30 35 35 30 28 30 30 27 25 27 29 27 25 24 23 25 26 27 25 24 24
18 18 18 18 17 17 16 15 14 13 12 11 10 9 9 8 9 8 7 6 6 5 5 5 5 6 6 7 9 10 11 12 12 13 15 16 17 19 21 22 22 23 23 24 24 25 26 26 27 27 28 31 35 37 37 40 42 44 46 40 29 26 28 29 32 34 32 28 28 29 31 32 30 29 30 28 28 28 27 27 27 26 23 23 23
19 19 19 19 18 18 17 16 15 14 13 12 11 10 10 9 9 9 8 7 6 5 4 4 4 4 5 6 7 9 9 10 11 12 13 15 16 18 20 22 23 23 24 24 24 24 25 25 25 26 27 29 33 35 36 38 40 41 45 40 29 26 29 32 37 38 32 27 27 29 35 37 33 30 32 31 30 32 32 28 27 25 22 21 22
19 20 19 19 19 18 17 16 16 15 13 13 12 11 10 10 10 9 8 7 6 5 4 3 3 3 4 5 6 7 9 9 10 12 13 14 16 17 20 21 23 24 24 25 25 25 25 25 24 25 26 28 30 32 34 37 37 38 42 37 27 25 27 33 39 39 32 26 24 26 35 41 35 31 35 33 29 32 33 28 26 26 24 21 21
20 20 20 19 19 18 18 17 16 15 14 13 12 12 11 11 11 10 9 8 7 5 4 3 3 2 2 4 5 7 8 9 10 11 12 14 15 17 19 20 22 24 24 24 24 24 24 24 23 23 25 26 29 30 32 35 36 38 42 38 27 23 26 30 35 37 33 27 24 27 35 40 37 33 34 32 30 31 30 26 25 26 25 21 20
22 22 21 20 20 19 18 18 17 16 15 14 13 12 12 12 11 11 10 9 8 6 5 3 2 2 1 3 5 6 8 8 9 10 11 13 15 16 18 20 21 23 24 24 24 23 23 23 23 23 23 25 28 30 32 34 36 39 43 41 30 24 27 30 31 35 36 29 26 31 36 38 39 35 31 30 29 29 30 27 26 26 24 19 17
22 22 21 21 20 19 18 18 17 17 16 15 14 14 13 13 12 11 11 10 9 7 5 4 3 1 1 2 4 6 7 8 9 10 11 12 14 16 18 20 21 23 24 25 25 24 24 24 24 24 25 26 29 31 33 35 37 39 43 43 36 26 26 28 28 32 37 33 31 36 37 38 39 36 32 34 34 34 34 32 29 28 24 18 16
21 21 21 22 21 20 20 18 18 18 16 15 15 14 14 13 12 12 11 10 9 8 6 5 3 2 1 2 4 5 6 7 8 10 11 12 14 16 17 19 21 23 25 25 26 26 26 26 27 27 28 30 31 33 35 36 39 40 41 44 42 32 25 26 27 31 36 37 39 40 38 38 41 38 35 37 40 42 41 37 33 30 25 18 16
Wind_Direction
133 130 124 124 115 70 57 52 37 351 317 288 284 300 301 299 300 305 302 310 318 323 329 332 334 334 333 333 331 327 323 319 317 314 314 313 314 316 316 315 314 313 310 305 304 309 316 321 330 341 345 348 347 339 333 329 323 320 320 321 323 326 326 323 320 317 311 305 297 291 295 296 292 295 298 301 291 264 252 249 242 241 246 247 247
116 101 95 96 86 62 51 50 50 13 338 315 319 325 320 314 309 312 324 331 332 330 334 337 335 333 332 331 327 324 322 320 318 316 316 315 314 314 313 314 315 315 314 312 311 312 318 322 329 339 345 348 349 349 347 340 331 329 325 321 320 321 322 322 324 325 321 313 301 291 291 294 292 291 292 295 297 278 257 249 243 239 243 246 246
77 54 50 40 41 54 53 46 49 37 20 351 355 355 342 338 335 341 346 344 340 337 340 340 333 329 328 327 326 326 323 321 320 318 317 316 314 314 314 316 318 318 317 317 319 321 323 325 328 329 329 333 337 339 339 338 336 335 330 323 320 320 321 320 317 319 320 317 308 295 289 291 293 292 290 290 295 291 269 252 245 240 240 244 246
20 16 21 15 29 51 46 39 39 33 28 18 18 14 0 350 347 350 352 352 349 345 343 337 329 326 326 327 327 326 325 325 326 325 325 324 322 321 320 321 320 319 318 319 321 325 328 330 331 328 325 324 323 322 323 326 330 334 332 321 315 316 322 324 319 314 314 317 314 301 291 289 289 288 287 287 289 292 282 260 246 242 241 241 245
6 7 10 6 35 46 33 29 26 20 19 17 15 8 359 352 349 350 351 351 346 339 336 330 325 324 325 326 327 328 331 334 335 334 334 332 330 328 325 323 321 319 319 321 323 327 331 333 334 331 327 325 322 321 320 320 321 325 328 321 317 315 317 323 323 317 312 315 316 306 294 289 285 281 281 283 285 286 285 272 251 243 243 241 242
10 10 357 0 31 29 19 14 11 14 16 10 4 357 350 347 346 346 345 341 333 327 328 327 324 325 327 329 330 333 336 335 335 335 335 333 332 329 325 322 321 321 323 326 329 332 334 335 335 332 329 325 323 321 318 316 314 316 316 317 320 318 313 310 312 311 307 309 310 304 296 288 281 277 277 280 284 283 281 280 264 247 244 244 242
22 15 341 347 18 11 6 4 2 7 10 4 356 349 343 340 337 336 334 329 323 320 322 325 326 327 328 329 330 331 330 330 331 331 330 331 331 327 326 325 326 327 329 330 331 332 332 332 330 326 323 319 315 313 311 309 308 309 310 313 315 315 311 304 301 301 301 304 305 301 299 293 284 279 277 275 278 280 277 278 273 256 246 243 243
25 10 343 348 7 4 2 358 355 357 2 357 347 341 336 330 327 326 324 322 318 315 317 321 322 320 320 322 324 324 323 324 325 327 331 335 335 333 334 334 334 335 334 333 331 329 327 325 323 319 315 312 309 306 305 305 305 305 306 307 309 310 310 304 301 300 302 306 303 299 299 296 292 285 280 274 270 274 274 274 275 269 255 244 241
9 346 335 347 4 1 356 350 349 352 352 345 337 331 327 323 323 322 319 319 314 310 312 314 312 309 310 315 318 316 315 320 331 342 347 346 342 341 342 340 340 339 337 335 331 328 327 325 323 320 316 312 310 307 305 304 305 305 305 306 306 307 309 306 303 302 304 306 300 298 298 296 293 290 287 274 267 269 271 271 272 271 265 252 241
190 309 318 334 351 341 337 340 341 342 336 331 327 324 324 324 324 324 324 324 316 312 317 317 310 304 304 303 298 298 314 344 355 355 351 347 346 345 345 344 343 342 341 340 336 335 335 335 334 330 327 323 320 316 311 307 306 305 305 305 304 305 306 306 305 303 304 304 297 298 301 298 294 292 293 281 266 268 269 269 270 267 265 260 247
168 218 298 316 325 324 328 330 328 329 327 325 323 322 325 327 327 331 336 340 337 339 345 340 318 290 272 260 248 267 7 11 359 354 352 351 353 353 354 354 353 352 352 353 350 347 347 347 348 347 345 343 339 334 328 321 315 311 307 305 303 303 304 304 305 303 302 301 296 297 300 298 295 293 294 286 264 259 260 260 263 263 261 262 253
141 227 283 301 307 315 323 323 320 319 319 319 319 321 323 326 335 346 356 3 2 5 9 353 294 239 225 225 201 126 33 15 358 353 358 3 7 8 9 7 5 4 4 4 1 356 355 354 355 356 356 355 354 350 345 338 331 325 318 312 307 304 303 303 303 302 301 300 296 296 296 293 291 289 287 283 269 258 255 254 256 258 256 259 259
104 304 317 316 317 324 327 325 322 317 315 316 320 323 327 339 356 5 11 14 7 10 20 22 245 235 223 218 202 90 11 359 352 356 10 19 21 19 17 15 12 12 11 9 5 2 360 359 359 359 359 359 360 358 354 349 343 336 329 323 317 311 307 304 303 300 298 298 296 294 293 287 285 284 281 279 275 269 266 264 262 260 256 253 253
301 305 321 325 327 329 326 326 325 324 324 325 330 340 356 8 10 11 16 14 10 15 28 44 247 254 239 215 200 81 4 350 354 14 28 29 26 22 18 16 17 17 16 11 8 6 4 3 2 1 1 2 2 1 358 355 349 343 336 330 324 319 314 309 306 303 299 297 296 293 291 286 282 282 282 279 276 275 276 276 271 264 259 253 249
292 307 318 322 324 322 320 323 327 333 340 346 3 20 26 21 15 16 17 15 20 37 53 63 115 218 218 181 148 121 69 10 16 32 31 28 24 21 19 17 19 18 15 12 10 8 7 6 5 4 4 3 3 3 1 359 354 348 342 336 330 325 321 317 312 309 305 300 297 295 292 288 284 281 281 281 279 278 277 279 279 270 261 254 249
303 312 317 316 315 313 314 323 333 346 2 17 31 32 29 23 18 20 20 23 34 59 75 76 84 102 138 139 120 112 96 49 45 42 31 27 23 22 22 20 19 17 14 12 10 9 9 8 7 7 6 5 5 5 4 2 359 354 348 343 338 333 330 327 322 319 315 309 304 299 296 292 287 283 281 281 281 281 280 280 281 277 267 255 246
309 313 314 311 307 306 315 334 355 19 30 34 37 32 29 24 23 28 26 35 45 55 71 73 73 77 88 104 105 95 89 86 76 56 38 30 27 25 24 22 20 18 16 14 12 11 11 11 11 11 9 9 9 8 8 7 4 1 356 350 345 340 337 334 331 328 325 320 314 307 303 299 293 289 285 282 281 282 284 283 279 276 274 262 246
312 314 311 303 297 308 348 19 40 46 42 39 38 31 29 28 31 38 35 47 53 52 63 66 65 66 68 75 80 79 80 84 95 90 55 38 34 30 26 23 22 20 19 17 15 14 13 13 13 12 12 11 11 11 10 10 7 4 1 356 352 347 343 339 336 334 331 327 323 316 310 305 301 297 291 286 284 283 285 286 281 274 274 269 250
313 314 305 291 288 52 63 66 60 52 44 40 38 32 35 37 39 44 43 50 54 46 52 57 56 57 58 59 61 64 65 68 82 93 88 50 37 34 30 24 21 21 19 17 15 14 14 15 14 13 12 11 11 10 9 9 6 4 1 358 355 352 348 345 340 336 333 330 327 323 317 311 307 304 298 292 288 287 285 284 282 276 272 272 259
313 311 295 271 142 93 85 75 62 51 45 41 41 40 45 46 45 49 48 52 53 44 46 50 48 50 51 51 51 54 55 58 65 63 64 60 33 31 31 25 22 21 19 18 17 15 16 17 16 14 11 9 9 9 8 6 4 3 0 356 354 352 350 346 343 338 334 331 327 325 322 318 313 309 304 299 294 291 288 284 281 276 272 270 266
313 301 262 211 117 98 86 74 62 52 48 47 50 51 53 54 55 59 56 54 53 46 45 47 48 49 49 49 49 51 51 51 53 50 50 51 33 26 25 23 22 19 17 18 19 18 18 17 16 14 10 8 7 6 6 4 2 1 359 355 352 349 347 344 341 338 334 331 328 325 323 321 318 313 308 304 300 295 291 288 282 277 273 270 267
307 270 206 157 113 97 83 73 62 55 55 55 58 59 63 66 67 69 64 58 55 49 48 49 51 52 51 51 49 47 46 44 43 41 40 40 33 25 22 23 23 20 16 15 16 17 17 15 14 13 10 7 5 3 2 1 360 358 356 354 351 348 345 341 338 336 332 329 325 322 320 319 318 315 311 307 303 299 294 291 286 279 274 271 268
286 214 172 132 107 92 80 73 63 60 62 63 68 73 78 80 77 73 67 60 57 51 51 54 52 52 50 47 45 43 42 40 38 36 33 32 30 25 22 22 24 24 20 17 18 18 16 12 9 10 9 6 4 1 358 357 357 355 353 352 350 347 344 340 337 335 332 328 323 319 316 314 313 311 310 308 304 300 296 291 288 283 277 273 269
230 178 148 121 99 88 78 71 65 65 68 72 82 87 84 83 77 72 66 60 58 53 52 53 50 48 46 44 43 41 40 39 36 33 31 29 28 26 22 21 22 23 22 21 19 18 16 11 6 5 5 5 2 358 355 355 354 352 349 348 347 345 343 341 338 335 332 329 324 319 316 311 308 307 306 306 304 300 296 292 288 285 281 276 271
179 157 139 117 98 92 79 72 71 72 78 83 88 89 83 79 73 67 64 60 58 55 52 52 48 46 44 42 40 38 37 38 34 30 29 28 27 24 22 21 21 20 21 24 21 17 15 11 5 3 3 3 359 356 354 353 351 349 346 344 344 343 343 341 339 336 332 329 325 322 318 313 308 305 302 302 303 300 295 291 288 285 282 278 273
155 152 139 119 104 97 83 80 81 80 85 88 88 87 80 74 70 64 61 59 57 54 52 51 48 45 43 40 37 36 36 34 31 29 29 28 26 24 20 18 19 17 16 20 19 15 15 13 7 3 1 0 357 355 353 351 348 347 344 342 342 343 342 341 339 336 332 329 327 323 318 315 310 306 303 300 300 301 297 291 286 284 282 280 276
153 154 141 125 110 102 93 89 87 86 90 91 88 85 78 71 67 61 58 59 55 52 52 50 47 44 41 39 36 35 34 31 29 29 28 27 25 24 21 18 17 14 12 16 15 10 9 10 9 4 359 357 356 353 351 350 348 345 343 342 342 342 341 340 339 336 334 331 329 325 320 316 312 308 305 303 301 301 301 295 286 282 280 279 277
158 155 142 130 116 108 102 94 92 92 94 93 87 82 75 68 65 60 59 59 53 51 52 48 45 43 39 38 35 34 33 31 30 29 28 27 25 24 23 22 19 13 9 11 11 9 7 5 5 3 360 356 354 353 351 350 348 344 342 342 341 341 341 341 339 337 336 334 330 326 322 318 314 311 308 306 304 302 301 298 289 280 276 275 275
158 153 144 133 122 113 105 99 101 100 97 93 86 81 76 69 66 62 60 59 53 50 50 46 44 42 39 37 35 34 34 33 32 31 28 26 25 24 24 24 22 17 7 1 2 6 6 5 2 359 358 357 354 352 350 349 348 345 344 343 342 343 342 341 340 339 338 335 330 326 323 320 316 313 310 307 305 302 299 298 293 281 273 271 271
155 154 147 135 125 116 112 111 110 105 99 92 87 84 78 70 67 64 62 60 51 48 48 46 45 42 39 37 36 36 37 35 33 31 28 26 26 26 24 23 22 19 10 357 356 1 2 3 3 358 356 357 353 351 351 350 349 347 346 346 345 344 344 343 342 340 336 332 329 326 323 320 317 314 311 307 303 300 298 297 294 285 273 267 267
160 160 149 135 126 123 125 123 114 107 102 96 91 86 79 73 70 66 64 59 49 47 49 48 46 44 41 39 38 39 38 36 34 31 29 28 27 26 25 23 20 16 12 1 353 359 1 359 0 359 356 355 354 352 352 352 350 350 350 349 347 346 345 344 341 337 333 329 326 325 323 320 319 316 310 306 301 297 296 294 293 289 278 268 265
167 162 147 135 133 136 135 127 117 111 106 102 93 86 81 77 74 68 65 59 49 50 52 50 49 47 43 41 40 41 39 36 34 32 32 30 27 27 25 22 18 12 11 4 352 357 4 0 358 359 356 355 356 354 352 352 352 352 352 351 349 348 346 343 337 332 328 325 323 324 325 324 325 322 314 307 301 295 292 291 290 289 282 271 263
169 160 148 144 145 145 140 131 123 116 110 105 96 89 83 78 76 71 67 63 55 55 55 52 52 49 46 43 41 42 40 37 35 34 33 30 27 26 23 21 19 12 8 5 357 355 1 1 358 358 358 357 357 355 353 353 353 353 353 352 351 349 346 340 333 327 324 322 322 323 325 327 328 325 320 313 305 298 292 289 287 286 284 274 263
169 161 156 154 151 148 145 137 130 123 117 109 99 93 84 79 79 76 74 72 63 58 56 53 52 50 47 44 43 42 40 38 36 34 32 30 27 24 22 21 19 14 8 5 1 356 357 360 359 358 358 358 357 356 355 354 354 353 353 352 351 348 344 336 328 325 322 321 323 324 325 326 327 325 322 319 312 304 296 289 285 283 282 276 265
172 167 161 157 155 152 148 143 136 129 123 114 104 96 89 84 85 85 86 80 67 61 58 55 54 51 48 46 44 42 41 39 38 35 31 28 25 23 22 21 18 15 10 6 3 358 356 358 359 358 358 358 358 358 357 355 354 353 353 353 350 344 337 333 330 326 323 324 327 328 326 326 327 327 325 322 316 309 301 293 286 281 279 277 267
178 172 164 159 159 157 151 148 144 135 128 119 109 103 99 98 99 98 93 79 68 67 63 60 57 53 50 47 44 43 41 40 38 36 31 26 24 23 21 20 17 14 11 7 4 0 358 357 358 358 359 360 359 359 358 355 353 353 353 352 348 338 332 334 329 324 325 327 329 328 327 327 329 329 327 325 320 313 306 298 289 282 279 278 272
179 175 168 163 161 158 154 153 149 140 134 124 115 113 112 115 119 111 96 78 70 72 69 65 60 55 51 47 45 43 40 39 37 34 30 24 22 23 21 19 17 13 10 8 5 3 1 358 357 359 1 1 360 360 358 354 352 353 351 349 347 342 341 342 338 335 334 330 328 328 328 330 331 330 329 328 324 317 308 301 294 286 280 278 275
179 175 170 166 163 160 158 158 155 148 142 133 127 126 125 129 131 116 97 81 73 75 74 69 62 56 52 47 45 43 40 38 35 31 29 25 21 21 20 18 15 13 11 8 5 3 2 1 0 1 1 1 359 358 357 354 353 352 348 345 345 345 345 347 347 345 341 333 331 330 328 331 333 332 333 333 329 323 313 304 298 292 285 280 276
178 176 171 169 166 164 163 163 160 155 148 144 140 137 138 140 134 119 105 91 81 79 75 69 62 56 52 48 44 43 40 37 32 28 26 24 22 19 18 17 14 12 11 7 5 4 3 4 3 0 360 0 359 355 355 355 353 352 349 342 339 343 344 344 344 343 340 336 334 333 332 333 333 331 333 335 335 331 323 313 305 300 294 286 280
176 176 174 173 170 168 168 167 164 160 156 155 151 146 148 146 138 130 117 101 91 86 78 69 61 55 52 48 44 42 40 36 31 26 24 22 20 18 16 15 13 12 10 7 5 4 5 5 4 360 358 359 357 354 355 356 354 353 352 344 336 338 340 341 344 342 339 338 335 333 335 335 332 331 331 331 331 329 326 322 314 307 302 294 287
179 178 175 176 176 173 172 169 167 166 163 164 160 154 151 146 143 140 126 111 101 91 80 69 61 56 51 48 45 42 39 36 32 27 24 22 19 16 14 13 12 11 9 7 5 5 5 6 3 359 358 358 357 357 356 356 354 352 351 344 335 335 336 341 347 349 343 338 336 335 335 334 333 331 330 328 326 325 324 324 321 316 310 302 292
183 180 176 177 179 178 176 172 171 171 171 171 168 161 154 150 148 144 131 116 105 96 85 71 61 56 51 46 44 42 38 36 33 29 26 24 22 18 13 10 9 9 8 7 6 6 5 6 3 360 358 357 359 360 357 356 355 354 351 343 337 337 337 339 347 353 352 342 335 335 334 332 333 331 330 327 324 323 321 318 322 325 319 308 294
185 181 179 180 180 180 178 175 175 176 177 175 172 168 160 154 154 149 138 125 110 101 89 75 62 55 51 46 43 42 37 34 33 30 28 26 24 21 16 13 9 6 6 6 6 7 6 5 4 2 358 357 360 2 359 356 356 357 355 346 337 338 340 337 339 347 352 345 333 331 332 332 330 327 326 325 322 322 319 316 324 331 325 312 299
186 183 182 183 183 180 176 177 180 181 183 180 175 173 166 161 162 157 148 137 121 108 95 82 68 56 50 45 44 42 36 32 29 28 28 27 24 21 19 18 14 10 7 5 5 6 7 5 4 3 -0 358 1 3 1 358 358 358 357 351 341 338 340 337 334 338 344 343 335 330 331 335 333 325 324 328 325 319 317 318 326 333 326 313 303
187 186 186 185 185 182 177 178 182 183 185 184 179 175 172 169 169 164 159 149 135 121 105 90 73 62 55 48 45 42 35 31 26 25 27 26 23 21 19 18 16 14 11 9 8 6 6 5 4 3 1 360 1 3 2 1 359 358 357 354 346 341 340 340 340 340 341 342 337 332 331 335 336 329 326 328 326 321 320 320 324 330 326 313 305
187 188 188 187 186 184 181 181 183 185 187 186 182 179 178 177 174 170 166 158 148 136 121 103 82 71 62 53 50 44 36 30 25 22 23 24 22 20 18 16 15 13 12 11 11 8 7 7 5 3 2 1 1 2 2 4 2 359 359 356 347 341 341 345 350 350 347 344 340 334 332 336 337 331 327 327 325 324 326 324 323 328 327 316 308
188 189 190 189 186 184 183 183 184 187 188 187 185 183 183 182 177 173 170 166 161 151 137 123 98 81 67 56 54 46 36 28 21 20 19 21 22 19 17 16 13 12 12 11 11 9 7 8 7 4 3 2 2 2 3 5 4 1 1 359 347 338 341 347 353 355 352 347 343 335 332 335 339 332 328 329 326 325 329 330 327 329 328 319 308
190 190 190 190 188 186 185 185 186 188 189 188 187 187 186 184 179 176 174 173 171 165 157 146 117 96 69 53 50 43 36 26 17 17 16 17 19 18 16 15 12 11 11 10 10 9 7 8 8 6 5 4 5 6 6 7 5 3 5 3 351 341 344 346 349 352 352 349 347 341 333 334 340 336 330 331 329 328 333 334 330 328 326 317 304
191 189 189 189 189 188 188 188 188 189 190 189 188 188 187 183 178 177 176 176 178 176 173 167 140 114 74 52 45 36 31 24 16 16 16 16 17 16 14 14 12 10 9 8 7 7 8 10 11 10 8 7 9 10 10 10 7 7 10 8 358 347 348 348 346 349 354 353 348 345 338 337 341 340 333 331 331 333 337 336 333 331 326 315 302
192 189 188 189 189 188 189 191 191 190 190 190 189 188 186 181 176 176 178 178 180 181 181 179 166 147 103 48 41 32 25 19 16 16 15 15 16 14 12 12 10 7 5 4 4 5 6 9 12 14 12 10 12 13 13 13 11 12 14 13 7 356 349 350 348 348 354 356 353 349 344 342 345 345 339 335 334 338 342 340 338 338 332 319 307
192 190 190 189 189 187 187 191 192 191 190 191 191 190 186 181 176 177 179 179 180 182 182 181 178 173 152 45 37 28 18 14 15 15 15 16 14 11 10 10 7 4 1 360 360 0 2 6 9 13 14 13 13 14 14 15 14 14 15 16 15 8 354 349 350 351 354 355 356 354 349 346 349 351 348 343 337 337 344 347 344 343 339 331 317